カタログに戻る

STARLINK-31022

運用中通信VLEO
NORAD 58633·PAYLOAD·🇺🇸 United States

打ち上げ Dec 23, 2023 から Cape Canaveral Space Force Station

Loading…

次のパス (今後24時間)

TLE

最新Source: CelesTrak SupGP

元期: Sep 14, 2026, 13:58 UTC

1 58633C 23203R   26257.58243056 -.00001617  00000+0 -58546-4 0  2575
2 58633  43.0031  84.2224 0001492 263.5998 135.5436 15.27587892    10

AllMySatでSTARLINK-31022をリアルタイム追跡

Download on the App Store